TimeCST,TemperatureF,Dew PointF,Humidity,Sea Level PressureIn,VisibilityMPH,Wind Direction,Wind SpeedMPH,Gust SpeedMPH,PrecipitationIn,Events,Conditions,WindDirDegrees,DateUTC
12:53 AM,51.1,46.0,83,29.89,10.0,Calm,Calm,-,N/A,,Overcast,0,2012-12-07 06:53:00
1:53 AM,48.0,44.1,86,29.89,9.0,Calm,Calm,-,N/A,,Scattered Clouds,0,2012-12-07 07:53:00
2:53 AM,46.0,43.0,89,29.88,10.0,Calm,Calm,-,N/A,,Scattered Clouds,0,2012-12-07 08:53:00
3:16 AM,48.2,44.6,87,29.86,8.0,Calm,Calm,-,N/A,,Mostly Cloudy,0,2012-12-07 09:16:00
3:53 AM,50.0,46.0,86,29.89,9.0,Calm,Calm,-,N/A,,Overcast,0,2012-12-07 09:53:00
4:53 AM,51.1,46.0,83,29.88,9.0,Calm,Calm,-,N/A,,Overcast,0,2012-12-07 10:53:00
5:53 AM,51.1,46.9,86,29.86,6.0,ENE,4.6,-,N/A,,Overcast,60,2012-12-07 11:53:00
6:07 AM,51.8,48.2,88,29.85,4.0,Calm,Calm,-,N/A,,Overcast,0,2012-12-07 12:07:00
6:53 AM,50.0,48.0,93,29.87,3.0,North,3.5,-,N/A,,Overcast,10,2012-12-07 12:53:00
7:05 AM,50.0,48.2,94,29.87,2.5,North,3.5,-,N/A,,Overcast,10,2012-12-07 13:05:00
7:41 AM,50.0,48.2,94,29.88,1.2,Calm,Calm,-,N/A,,Overcast,0,2012-12-07 13:41:00
7:53 AM,50.0,48.0,93,29.89,1.0,NNE,3.5,-,0.00,Rain,Light Rain,20,2012-12-07 13:53:00
8:27 AM,51.8,48.2,88,29.88,1.2,Calm,Calm,-,0.01,,Overcast,0,2012-12-07 14:27:00
8:53 AM,51.1,48.9,92,29.89,1.5,Calm,Calm,-,0.01,,Overcast,0,2012-12-07 14:53:00
9:09 AM,51.8,48.2,88,29.88,2.5,Calm,Calm,-,N/A,,Overcast,0,2012-12-07 15:09:00
9:34 AM,51.8,48.2,88,29.88,2.5,Calm,Calm,-,N/A,,Overcast,0,2012-12-07 15:34:00
9:44 AM,51.8,50.0,94,29.87,3.0,Calm,Calm,-,N/A,,Overcast,0,2012-12-07 15:44:00
9:53 AM,52.0,50.0,93,29.89,3.0,Calm,Calm,-,N/A,,Overcast,0,2012-12-07 15:53:00
10:53 AM,53.1,50.0,89,29.88,4.0,Calm,Calm,-,N/A,,Overcast,0,2012-12-07 16:53:00
11:53 AM,53.1,50.0,89,29.86,4.0,Calm,Calm,-,N/A,,Overcast,0,2012-12-07 17:53:00
12:53 PM,54.0,51.1,90,29.83,4.0,Calm,Calm,-,N/A,,Overcast,0,2012-12-07 18:53:00
1:53 PM,55.9,51.1,84,29.82,5.0,Calm,Calm,-,N/A,,Haze,0,2012-12-07 19:53:00
2:04 PM,55.4,51.8,88,29.80,6.0,Calm,Calm,-,N/A,,Haze,0,2012-12-07 20:04:00
2:53 PM,55.9,51.1,84,29.82,5.0,Calm,Calm,-,N/A,,Haze,0,2012-12-07 20:53:00
3:24 PM,55.4,51.8,88,29.81,4.0,Calm,Calm,-,N/A,,Haze,0,2012-12-07 21:24:00
3:53 PM,55.0,51.1,86,29.83,4.0,Calm,Calm,-,N/A,,Overcast,0,2012-12-07 21:53:00
4:53 PM,55.0,52.0,89,29.84,3.0,Calm,Calm,-,0.01,,Overcast,0,2012-12-07 22:53:00
5:16 PM,55.4,51.8,88,29.83,4.0,Calm,Calm,-,0.00,,Overcast,0,2012-12-07 23:16:00
5:53 PM,54.0,52.0,93,29.85,3.0,Calm,Calm,-,0.00,,Overcast,0,2012-12-07 23:53:00
7:34 PM,53.6,51.8,94,29.85,4.0,Calm,Calm,-,N/A,,Overcast,0,2012-12-08 01:34:00
7:53 PM,54.0,51.1,90,29.87,4.0,Calm,Calm,-,N/A,,Overcast,0,2012-12-08 01:53:00
8:53 PM,53.1,51.1,93,29.89,4.0,Calm,Calm,-,N/A,,Overcast,0,2012-12-08 02:53:00
9:53 PM,54.0,51.1,90,29.90,5.0,Calm,Calm,-,N/A,,Overcast,0,2012-12-08 03:53:00
10:04 PM,53.6,51.8,94,29.89,5.0,Variable,3.5,-,N/A,,Overcast,0,2012-12-08 04:04:00
10:13 PM,53.6,51.8,94,29.89,5.0,West,3.5,-,N/A,,Overcast,270,2012-12-08 04:13:00
10:53 PM,54.0,50.0,86,29.91,6.0,NW,4.6,-,N/A,,Overcast,320,2012-12-08 04:53:00
11:53 PM,53.1,50.0,89,29.92,3.0,Variable,3.5,-,0.01,Rain,Light Rain,0,2012-12-08 05:53:00